RH
40 42 44 43 38 32 27 22 21 20 21 20 34 43 46 46 48 50 42 22 11 16 17 17 15 27 64 95 97 92 99 90 84 91 74 60 78 63 64 61 66 71 86
45 46 46 39 32 34 31 24 24 23 20 21 33 41 40 43 46 53 47 24 12 14 17 16 14 40 60 77 97 98 99 98 87 86 58 54 64 44 64 78 82 94 91
42 40 38 35 32 31 29 27 21 20 17 20 22 42 32 44 49 54 49 24 13 15 16 17 14 55 67 80 97 96 94 99 91 85 58 72 73 78 76 81 93 94 88
42 41 38 34 28 27 25 25 18 16 18 16 16 29 22 41 52 58 54 28 14 15 18 17 14 46 66 85 96 96 97 97 98 94 91 85 78 94 80 78 99 92 87
43 41 38 33 28 23 21 22 18 13 15 13 17 22 20 44 58 59 61 33 15 14 20 20 17 38 91 81 97 96 96 96 97 95 92 95 93 100 78 85 90 85 78
37 37 36 33 29 25 20 18 16 11 12 15 17 30 29 37 56 64 66 36 17 10 19 22 18 28 77 78 97 97 96 97 96 97 93 93 96 98 72 90 98 91 80
30 33 33 30 27 24 18 14 11 11 16 16 18 30 31 40 57 68 66 36 14 10 18 20 15 17 59 80 95 98 97 97 98 93 98 94 98 96 83 75 93 88 80
28 28 30 30 29 21 18 15 22 31 29 23 20 21 25 56 64 71 66 32 11 9 14 22 16 47 68 86 96 96 97 97 98 97 97 97 97 97 99 85 86 94 90
28 26 28 27 28 26 17 15 19 27 23 19 16 19 47 69 70 71 74 27 9 8 17 26 36 53 82 82 97 95 96 97 97 98 97 98 96 97 94 83 87 91 83
27 28 29 26 24 25 24 21 22 26 21 16 15 23 60 81 74 75 73 24 8 10 16 31 40 55 68 84 97 96 97 98 97 97 97 97 94 98 96 92 50 62 96
26 27 27 27 25 23 21 18 17 18 19 17 15 22 50 82 73 82 63 22 8 11 13 21 27 63 82 95 96 96 96 96 97 96 96 96 96 96 96 54 82 97 98
23 23 24 23 22 20 19 17 17 16 12 12 16 25 53 52 64 88 45 22 8 11 11 15 25 75 94 97 96 97 97 97 96 97 97 97 96 85 75 98 97 95 95
18 19 19 17 16 15 14 14 12 10 10 13 24 44 51 67 82 89 35 19 9 11 11 16 14 74 97 96 96 96 97 97 97 96 96 100 71 95 98 98 96 97 97
15 15 14 14 14 13 13 11 11 14 15 23 38 51 59 78 97 90 36 20 10 12 12 18 13 40 93 96 96 96 97 96 97 97 98 95 97 97 98 97 93 94 96
15 15 14 13 13 12 11 10 10 16 20 38 53 65 57 74 96 90 41 23 12 13 11 17 16 14 35 72 96 96 96 96 94 93 90 95 97 96 97 96 86 87 90
15 15 15 14 13 11 10 11 10 17 30 45 58 66 73 80 98 91 46 26 15 15 14 13 21 24 16 47 68 99 81 69 92 100 91 90 100 94 100 99 100 97 72
28 19 16 16 13 10 9 9 16 20 35 58 76 76 79 91 97 92 61 30 20 18 18 16 13 19 23 22 31 64 64 70 67 93 98 81 43 61 57 48 37 36 35
27 22 22 20 14 11 10 9 13 38 45 45 67 81 90 97 98 96 75 35 24 23 20 22 22 18 15 16 18 21 23 25 27 34 35 35 35 36 45 43 42 46 51
65 36 34 32 22 17 22 14 34 27 99 53 60 84 88 98 97 96 90 72 38 28 26 25 29 29 27 27 24 22 19 18 17 16 18 24 30 37 46 48 50 48 39
60 51 41 44 39 62 50 73 47 52 98 100 100 99 97 99 98 98 96 98 98 81 42 50 36 33 34 41 63 71 58 57 54 41 31 28 26 26 28 27 28 30 34
52 55 50 35 32 61 62 68 70 62 84 96 97 98 97 96 100 100 100 93 95 96 98 98 74 63 75 93 87 93 91 94 90 74 64 65 68 71 76 78 72 66 65
70 67 73 68 72 61 47 53 62 61 74 84 84 98 89 98 96 99 98 99 90 90 92 99 99 100 100 94 80 83 78 82 83 82 73 72 86 90 82 69 69 79 83
92 84 87 80 79 78 64 52 48 51 66 70 65 95 98 99 100 98 97 90 86 89 82 85 93 97 96 93 88 69 59 61 74 80 78 62 45 39 32 28 32 59 74
98 74 61 67 74 45 29 65 70 75 90 83 64 61 90 98 98 99 98 99 100 93 95 87 91 97 95 95 72 66 67 66 60 55 47 39 52 100 100 82 90 99 99
72 71 72 74 77 35 27 51 25 35 86 100 85 72 71 83 96 99 100 100 100 99 100 99 97 100 98 97 96 92 96 84 83 88 30 45 54 90 99 100 99 97 99
73 71 66 74 92 72 58 24 26 24 24 64 86 62 67 89 88 98 97 98 98 98 100 97 63 30 29 25 20 28 31 52 98 97 92 100 99 99 98 99 99 99 99
Wind_Speed
49 48 46 47 44 42 36 35 34 34 34 34 31 30 32 28 25 24 26 28 26 27 26 28 27 25 31 29 31 31 31 35 37 36 39 43 39 34 32 31 31 31 31
50 47 48 48 44 42 38 36 35 35 33 33 32 32 35 31 28 25 25 28 28 29 27 28 29 26 27 33 35 35 37 32 35 39 42 41 37 31 30 30 31 32 34
50 49 48 46 43 43 40 38 35 34 32 33 33 35 36 33 30 25 25 28 29 32 28 28 30 27 28 29 34 38 38 31 36 39 40 39 36 38 34 32 33 34 36
51 48 46 44 45 42 41 39 37 36 33 35 34 38 36 36 32 27 27 29 29 31 29 28 29 28 27 30 31 39 40 36 36 42 39 39 39 40 36 36 33 37 39
51 49 46 46 44 43 41 39 39 36 33 36 36 38 37 40 35 32 29 29 30 31 31 28 29 28 27 33 30 40 42 39 39 39 41 41 39 36 36 36 37 42 42
47 47 46 44 44 45 41 42 39 37 34 36 37 38 40 43 39 34 31 30 31 32 31 30 31 30 31 33 30 39 46 44 42 44 45 42 40 42 40 37 41 45 46
44 45 43 43 43 43 41 38 38 36 36 36 39 38 41 43 41 36 33 30 31 32 32 31 31 32 34 34 38 35 48 47 39 37 39 43 46 49 45 42 43 46 47
39 42 45 45 43 43 40 37 35 35 38 39 40 40 41 43 41 39 34 31 31 31 30 31 30 33 37 35 33 41 47 48 40 41 40 41 46 50 45 43 45 42 45
35 42 41 44 44 43 42 40 38 35 36 37 38 41 42 44 41 40 35 31 29 30 27 28 30 32 34 32 33 36 48 51 46 43 38 41 46 47 40 39 37 37 43
36 37 41 43 45 44 41 41 39 38 37 36 38 43 44 45 42 40 32 30 28 27 25 24 28 28 30 39 33 38 51 51 46 44 44 46 46 45 45 37 38 38 43
37 40 40 40 42 43 40 39 38 37 36 35 39 45 47 46 42 37 30 28 28 24 21 23 24 26 34 30 29 36 37 42 45 44 39 43 48 42 39 32 35 40 39
34 38 39 40 38 38 37 36 36 36 34 35 40 47 48 43 41 35 28 26 26 22 17 21 20 26 20 27 27 31 36 46 43 40 38 41 33 29 31 28 34 40 45
30 33 35 36 33 34 34 33 34 34 33 37 42 47 45 43 39 33 26 25 25 19 16 21 18 21 10 13 19 25 35 30 31 34 31 23 36 28 28 33 33 35 36
29 33 33 32 30 30 32 31 32 32 33 38 40 44 43 43 39 30 26 25 24 18 15 19 19 19 16 8 17 18 23 24 21 29 29 30 28 33 31 31 27 31 30
31 32 32 33 31 27 29 30 31 32 35 36 39 40 44 45 42 30 29 26 24 18 13 17 18 17 18 15 12 12 20 16 12 17 19 19 28 32 31 30 29 29 30
32 32 32 33 32 29 28 30 30 34 36 37 37 40 43 44 43 32 29 27 25 20 14 14 17 16 15 16 18 16 15 15 17 19 19 21 26 27 31 34 34 35 37
24 28 31 32 33 32 28 28 32 34 36 35 36 38 40 45 44 34 31 28 25 23 17 15 16 19 16 14 15 19 18 19 19 23 24 24 25 29 31 33 34 35 36
25 25 27 30 35 33 29 28 30 31 32 35 38 38 37 40 44 35 31 29 26 24 21 19 18 18 18 18 18 18 19 19 19 23 24 25 26 28 31 33 35 37 38
24 25 27 29 32 34 30 28 27 30 38 34 41 41 42 42 43 38 34 32 29 30 25 24 23 21 20 18 19 20 21 23 25 27 28 30 31 32 34 36 39 41 42
25 26 29 27 29 26 29 29 30 32 36 43 55 52 44 40 41 36 31 25 31 40 37 29 27 26 24 25 25 26 25 25 25 26 28 30 31 33 35 37 39 39 39
23 23 24 24 27 28 26 30 33 36 39 39 36 38 39 41 41 37 32 29 26 20 27 28 32 28 29 28 26 25 26 27 29 30 29 30 31 32 34 37 40 41 42
25 25 24 24 23 24 26 29 30 36 39 37 38 55 59 58 42 41 36 32 27 28 25 23 22 28 30 31 28 25 26 29 32 34 35 35 35 37 40 42 44 47 51
19 17 18 20 21 22 22 24 28 31 27 35 37 41 53 52 49 44 37 32 33 31 29 30 29 32 35 33 33 31 30 31 33 35 36 37 38 43 42 42 46 47 47
16 15 18 20 22 20 21 21 22 25 25 26 27 33 37 48 50 47 41 40 39 39 37 39 40 29 45 32 35 34 35 36 38 38 39 40 42 49 44 45 44 51 52
16 18 18 20 18 17 19 18 17 16 16 24 23 24 28 33 35 53 57 56 53 48 48 46 38 40 42 37 36 36 38 40 40 43 42 45 46 45 50 48 51 54 57
12 12 13 15 19 19 17 18 19 17 17 14 17 16 16 22 31 27 29 39 41 41 39 34 31 35 35 34 33 35 37 45 42 46 41 55 51 46 53 54 54 57 58
Wind_Direction
253 256 259 260 262 265 265 264 266 267 268 268 263 267 272 273 276 290 294 294 289 285 280 265 257 263 256 267 239 229 238 236 233 227 227 226 229 232 233 235 242 246 237
250 253 256 259 259 262 262 264 265 266 265 267 264 264 271 274 271 282 291 290 289 283 281 266 253 256 267 277 233 219 227 236 237 224 223 228 231 232 239 239 244 248 235
248 251 253 256 258 260 261 260 262 264 265 266 265 265 272 275 271 283 291 286 286 282 284 267 259 254 265 275 240 226 218 231 231 221 223 228 233 238 242 242 243 236 233
248 250 252 253 256 257 259 258 259 264 264 266 267 268 272 277 274 280 287 286 285 281 285 271 257 257 259 262 236 235 218 229 227 222 223 230 233 239 241 245 239 231 233
247 249 250 250 253 253 255 254 256 260 260 264 267 268 273 276 274 280 282 283 287 280 281 273 255 254 260 270 248 233 226 225 231 226 228 235 239 239 247 248 232 230 233
247 247 247 248 249 251 249 249 251 253 255 259 262 263 267 273 274 277 282 283 290 283 274 275 253 253 258 266 248 231 227 227 230 231 234 239 239 234 241 243 235 235 239
245 245 243 243 246 248 247 245 244 247 252 255 257 258 262 269 273 276 283 285 291 284 274 278 261 252 259 256 253 229 221 221 227 238 241 238 236 239 243 246 242 240 243
242 242 242 242 242 243 241 239 240 247 252 254 255 257 260 264 268 273 282 285 290 284 272 274 262 264 264 273 234 230 220 224 227 235 242 246 241 237 239 248 250 251 254
240 241 240 241 243 242 241 239 243 246 249 253 254 255 257 261 264 272 278 281 285 276 270 267 261 273 265 274 236 227 215 221 225 232 236 244 241 238 239 248 255 250 259
239 239 238 240 242 244 243 242 243 244 247 249 250 251 253 256 262 272 271 277 278 276 267 273 265 272 276 261 245 222 222 223 220 228 235 242 239 236 236 245 255 262 265
234 236 239 240 243 245 245 243 241 242 244 246 246 249 250 255 262 268 264 272 273 274 266 271 276 275 277 246 234 224 224 214 219 230 235 237 245 249 243 251 256 258 267
237 237 241 243 244 247 247 245 244 243 241 240 242 246 248 255 258 262 259 267 270 275 269 270 277 274 267 233 233 223 221 217 220 230 232 247 249 234 237 253 264 267 267
239 239 240 243 245 243 246 247 246 241 238 240 241 244 248 251 255 257 257 265 266 274 277 265 266 259 247 244 226 223 217 214 218 227 232 252 234 223 234 261 267 266 263
241 243 244 243 245 248 247 245 244 242 240 241 243 245 249 251 252 248 253 260 260 264 276 253 261 246 251 232 228 227 210 248 222 219 238 236 232 235 249 259 254 252 257
245 247 247 247 244 245 249 245 243 245 243 245 247 248 248 250 250 241 248 253 254 255 269 251 256 255 258 251 223 205 206 205 219 228 236 244 236 234 242 247 250 253 254
243 247 251 254 250 249 252 252 247 244 247 245 243 244 248 248 248 237 244 250 250 245 247 249 251 262 256 238 223 235 232 232 239 251 247 244 231 236 242 252 258 262 261
244 248 251 254 254 253 252 248 247 248 247 249 243 244 251 246 247 234 240 245 249 248 236 234 235 241 250 246 230 232 233 240 245 245 255 261 253 252 254 257 258 262 263
246 250 254 256 253 255 258 249 245 250 249 250 247 245 248 248 239 232 237 241 244 248 246 244 237 231 231 235 241 245 248 249 247 243 248 251 251 257 257 260 262 264 266
245 248 250 255 256 255 257 253 247 242 246 247 247 252 242 242 232 234 232 242 245 244 242 247 251 252 249 244 242 243 247 250 251 250 251 251 252 254 258 261 263 265 267
242 248 251 253 253 258 255 247 243 239 239 229 239 242 223 224 233 241 239 250 249 247 243 246 247 254 253 255 256 257 255 261 262 263 263 265 264 263 263 265 266 270 274
246 251 258 256 254 249 251 251 248 245 240 240 205 208 220 229 231 236 242 248 256 244 249 249 244 251 258 257 259 261 260 263 263 263 264 265 268 270 273 276 279 282 284
243 246 243 238 241 247 251 249 253 254 252 256 248 236 238 237 234 236 238 240 255 244 246 253 240 248 262 254 256 260 265 268 268 269 273 275 279 282 283 286 287 285 284
226 230 235 236 245 249 248 247 248 258 253 250 256 230 218 225 235 231 236 240 247 248 241 263 267 267 260 248 253 258 264 265 267 269 274 280 281 279 279 281 282 280 279
216 232 241 242 244 245 244 246 239 245 243 239 247 242 247 208 228 234 241 235 236 244 248 258 270 244 256 242 252 255 261 267 272 276 280 277 281 280 272 283 274 273 272
220 233 244 246 238 247 245 242 243 240 248 230 229 241 241 250 248 220 223 237 241 250 252 251 250 243 243 249 253 255 258 271 271 276 273 274 270 270 271 268 266 264 273
227 230 242 249 245 245 257 249 248 243 241 249 235 233 237 236 239 253 241 225 223 230 232 235 244 251 258 262 260 261 258 260 260 267 262 262 270 269 270 271 272 269 281